Regional Weather Roundup
Issued by NWS

Home | Current Version | Previous Version | Text Only | Print | Product List | Glossary Off
Versions: 1 2 3 4 5 6 7 8 9 10 11 12 13 14 15 16 17 18 19 20 21 22 23 24 25 26 27 28 29 30 31 32 33 34 35 36 37 38 39 40 41 42 43 44 45 46 47 48 49 50

000
ASUS45 KCYS 012310
RWRWY

WYOMING REGIONAL WEATHER ROUNDUP
NATIONAL WEATHER SERVICE CHEYENNE WY
500 PM MDT FRI AUG 01 2014

NOTE:  "FAIR" INDICATES FEW OR NO CLOUDS BELOW 12,000 FEET
WITH NO SIGNIFICANT WEATHER AND/OR OBSTRUCTIONS TO VISIBILITY.

WYZ001-020000-
YELLOWSTONE NATIONAL PARK

CITY           SKY/WX    TMP DP  RH WIND       PRES   REMARKS
LK YELLOWSTONE   N/A     61  41  47 CALM      30.49R
W YELLOWSTONE  NOT AVBL

$$
WYZ002>013-054>058-071-098>099-020000-
NORTHERN WYOMING

CITY           SKY/WX    TMP DP  RH WIND       PRES   REMARKS
JACKSON        CLOUDY    73  43  33 N12       30.32R
CODY           CLOUDY    73  48  40 SW22G37   30.25R
GREYBULL       PTSUNNY   85  45  24 E7        30.11S
WORLAND        MOSUNNY   91  38  15 E13G23    30.12F
SHERIDAN       LGT RAIN  85  42  22 SW14      30.14S
BUFFALO        PTSUNNY   83  38  20 W13       30.23F
GILLETTE       PTSUNNY   85  40  20 CALM      30.15S
HULETT         FAIR      88  39  18 MISG      30.14
NEWCASTLE      FAIR      81  36  19 NW8G16    30.16

$$
WYZ014>020-022>026-101>103-020000-
CENTRAL WYOMING

CITY           SKY/WX    TMP DP  RH WIND       PRES   REMARKS
BIG PINEY      MOSUNNY   78  38  23 W16       30.33S
PINEDALE       CLOUDY    68  39  34 N17G23    30.35R
DUBOIS         CLOUDY    64  37  36 W18       30.41R
LANDER         MOSUNNY   83  31  15 NW3       30.20F
RIVERTON       MOSUNNY   85  29  13 N5        30.21F
CASPER         PTSUNNY   86  34  15 N13       30.20S
DOUGLAS        MOSUNNY   85  34  16 SW5       30.18F

$$
WYZ021-027>030-104>119-020000-
SOUTHERN WYOMING

CITY           SKY/WX    TMP DP  RH WIND       PRES   REMARKS
EVANSTON       SUNNY     81  29  15 MISG      30.30F
KEMMERER       PTCLDY   N/A N/A N/A N3        30.34F
FORT BRIDGER   FAIR      81  29  15 SE3       30.33F
ROCK SPRINGS   MOSUNNY   82  27  13 NE15      30.27F
DIXON          FAIR      84  26  12 CALM      30.25S
RAWLINS        SUNNY     81  29  15 NE15G24   30.29F
SARATOGA       FAIR      79  32  18 N14       30.29F
LARAMIE        SUNNY     72  37  28 SE14      30.35S
CHEYENNE       MOSUNNY   76  43  30 VRB6G20   30.29F
TORRINGTON     SUNNY     88  43  20 S13       30.14F
PINE BLUFFS    FAIR      77  45  31 S9        30.25S

$$



USA.gov is the U.S. government's official web portal to all federal, state and local government web resources and services.